DateTimeUTC,F1_A11,F1_S11,BsB_S11,BsG_S11,BsR_S11,BbsB_S11,BbsG_S11,BbsR_S11,BaB_A11,BaG_A11,BaR_A11,Tu_S11,T_S11,Uu_S11,U_S11,P_S11,T1_A11
2021-05-17T08:00:00Z,00000200,21000000,,,,,,,-000.27,0000.21,-000.22,16.1,23.2,00.3,00.2,0674.3,30.8
2021-05-17T08:01:00Z,00000200,21000000,,,,,,,0000.03,-000.41,0000.32,16.1,23.2,00.3,00.2,0674.3,30.8
2021-05-17T08:02:00Z,00000200,21000000,,,,,,,-000.01,0000.16,-000.37,16.1,23.2,00.3,00.2,0674.3,30.8
2021-05-17T08:03:00Z,00000200,61000000,,,,,,,0000.84,0000.53,0000.39,16.1,23.2,00.3,00.2,0674.3,30.8
2021-05-17T08:04:00Z,00000200,41000000,0001.42,0001.09,0000.97,0000.74,0000.51,0000.06,0000.65,0000.33,0000.63,16.3,23.0,00.5,00.3,0675.2,30.8
2021-05-17T08:05:00Z,00000200,01000000,0000.88,0000.99,0000.87,0000.32,0000.47,0000.10,0000.80,0000.86,0000.28,16.4,23.0,00.6,00.4,0675.3,30.8
2021-05-17T08:06:00Z,00000200,01000000,0001.74,0001.33,0000.42,0000.29,0000.25,0000.09,-000.07,0000.45,0000.40,16.4,23.0,00.6,00.4,0675.3,30.8
2021-05-17T08:07:00Z,00000200,01000000,0001.77,0001.25,0000.93,0000.35,0000.55,0000.20,0000.86,0000.59,0000.50,16.4,23.0,00.6,00.4,0675.3,30.8
2021-05-17T08:08:00Z,00000200,01000000,0001.72,0001.32,0000.68,0000.58,0000.37,0000.18,0000.47,0000.33,0000.22,16.5,23.0,00.5,00.3,0675.3,30.8
2021-05-17T08:09:00Z,00000200,01000000,0002.08,0001.12,0000.68,0000.30,0000.38,0000.08,0000.79,0000.49,0000.40,16.5,23.0,00.5,00.3,0675.2,30.8
2021-05-17T08:10:00Z,00000200,01000000,0001.60,0001.67,0001.07,0000.85,0000.71,0000.21,0000.48,0000.60,0000.41,16.5,23.0,00.5,00.3,0675.3,30.8
2021-05-17T08:11:00Z,00000200,01000000,0002.22,0001.30,0000.79,0000.52,0000.36,0000.38,0000.75,0000.56,0000.67,16.5,23.0,00.4,00.3,0675.3,30.8
2021-05-17T08:12:00Z,00000200,01010000,0001.53,0001.41,0000.73,0000.51,0000.38,-000.05,0000.68,0001.00,0000.07,16.5,22.9,00.5,00.3,0675.3,30.8
2021-05-17T08:13:00Z,00000200,01000000,0002.26,0001.52,0000.82,0000.53,0000.57,0000.10,0000.63,0000.05,0000.90,16.4,22.9,00.5,00.3,0675.2,30.8
2021-05-17T08:14:00Z,00000200,01000000,0002.28,0001.45,0000.71,0000.29,0000.28,-000.15,0000.63,0000.77,0000.14,16.4,22.9,00.6,00.4,0675.3,30.8
2021-05-17T08:15:00Z,00000200,01000000,0002.19,0001.17,0000.62,0000.26,0000.21,-000.03,0000.59,0000.71,0000.39,16.4,22.9,00.6,00.4,0675.3,30.8
2021-05-17T08:16:00Z,00000200,01000000,0001.72,0001.45,0000.93,0000.78,0000.10,0000.25,0000.80,0000.43,0000.12,16.4,22.9,00.6,00.4,0675.3,30.8
2021-05-17T08:17:00Z,00000200,01000000,0001.82,0001.17,0000.80,0000.17,0000.31,0000.19,0000.41,0000.61,0000.57,16.4,22.9,00.6,00.4,0675.2,30.8
2021-05-17T08:18:00Z,00000200,01000000,0002.55,0001.46,0000.98,0000.96,0000.22,0000.33,0000.57,0000.18,0000.36,16.4,22.9,00.5,00.3,0675.3,30.8
2021-05-17T08:19:00Z,00000200,01000000,0001.89,0001.49,0001.17,0000.34,0000.54,0000.09,0000.52,0000.94,0000.35,16.4,22.9,00.4,00.3,0675.3,30.8
2021-05-17T08:20:00Z,00000200,01000000,0002.13,0001.48,0000.94,0000.70,0000.60,0000.19,0000.79,0000.47,0000.64,16.4,22.9,00.4,00.2,0675.3,30.8
2021-05-17T08:21:00Z,00000200,01000000,0002.56,0001.57,0000.92,-000.03,0000.31,0000.10,0000.84,0000.90,0000.35,16.4,22.9,00.4,00.3,0675.2,30.8
2021-05-17T08:22:00Z,00000200,01000000,0002.23,0001.64,0001.10,0000.48,0000.31,0000.46,0000.73,0000.53,0001.09,16.4,22.9,00.5,00.3,0675.2,30.8
2021-05-17T08:23:00Z,00000200,01000000,0002.37,0001.85,0000.90,0000.47,0000.40,0000.19,0000.91,0000.57,0000.00,16.4,22.9,00.4,00.3,0675.2,30.8
2021-05-17T08:24:00Z,00000200,01000000,0002.54,0001.65,0001.32,0000.61,0000.45,0000.25,0000.70,0000.82,0000.42,16.4,22.8,00.3,00.2,0675.2,30.8
2021-05-17T08:25:00Z,00000200,01000000,0002.29,0001.45,0000.85,0000.48,0000.29,0000.22,0000.76,0000.47,0000.52,16.4,22.8,00.4,00.3,0675.2,30.8
2021-05-17T08:26:00Z,00000200,01000000,0002.19,0001.65,0001.01,0000.93,0000.30,0000.38,0000.78,0000.57,0000.21,16.4,22.8,00.4,00.3,0675.2,30.8
2021-05-17T08:27:00Z,00000200,01000000,0002.53,0001.57,0001.50,0000.46,0000.40,0000.38,0000.50,0000.71,0000.82,16.4,22.8,00.3,00.2,0675.2,30.8
2021-05-17T08:28:00Z,00000200,01000000,0002.67,0001.35,0000.74,0000.54,0000.27,0000.12,0000.70,0000.84,0000.34,16.3,22.8,00.3,00.2,0675.2,30.8
2021-05-17T08:29:00Z,00000200,01000000,0002.45,0001.33,0001.05,0000.56,0000.18,-000.04,0000.91,0000.62,0000.32,16.3,22.8,00.3,00.2,0675.2,30.7
2021-05-17T08:30:00Z,00000200,01000000,0001.56,0001.48,0000.72,0000.65,0000.33,0000.12,0000.66,0000.72,0000.61,16.3,22.8,00.3,00.2,0675.2,30.7
2021-05-17T08:31:00Z,00000200,01000000,0002.10,0001.52,0000.87,0000.42,0000.36,0000.24,0000.79,0000.50,0000.26,16.3,22.8,00.3,00.2,0675.2,30.8
2021-05-17T08:32:00Z,00000200,01000000,0002.45,0001.38,0000.83,0000.72,0000.49,0000.07,0000.60,0000.88,0000.83,16.3,22.8,00.3,00.2,0675.2,30.8
2021-05-17T08:33:00Z,00000200,01000000,0002.64,0001.63,0001.16,0000.43,0000.45,0000.25,0001.01,0000.31,0000.47,16.3,22.8,00.4,00.2,0675.2,30.8
2021-05-17T08:34:00Z,00000200,01000000,0002.96,0001.61,0001.08,0000.58,0000.21,0000.46,0000.54,0000.50,0000.14,16.3,22.8,00.4,00.3,0675.2,30.8
2021-05-17T08:35:00Z,00000200,01000000,0002.27,0001.73,0000.92,-000.02,0000.41,0000.31,0000.90,0000.82,0001.11,16.3,22.7,00.3,00.2,0675.2,30.7
2021-05-17T08:36:00Z,00000200,01000000,0002.38,0001.49,0001.44,0000.24,0000.44,0000.27,0000.66,0001.12,0000.22,16.3,22.7,00.3,00.2,0675.2,30.7
2021-05-17T08:37:00Z,00000200,01000000,0002.37,0001.63,0000.67,0000.65,0000.50,0000.07,0000.77,0000.22,0000.05,16.3,22.7,00.3,00.2,0675.2,30.8
2021-05-17T08:38:00Z,00000200,01000000,0002.21,0001.48,0000.78,0000.54,0000.17,0000.10,0000.97,0000.74,0001.03,16.3,22.7,00.3,00.2,0675.2,30.8
2021-05-17T08:39:00Z,00000200,01000000,0002.63,0001.65,0000.93,0000.76,0000.32,0000.33,0000.25,0000.83,0000.04,16.3,22.7,00.2,00.1,0675.2,30.8
2021-05-17T08:40:00Z,00000200,01000000,0002.51,0001.64,0001.38,0000.53,0000.47,0000.20,0001.20,0000.61,0000.53,16.3,22.7,00.3,00.2,0675.2,30.7
2021-05-17T08:41:00Z,00000200,01000000,0002.69,0001.87,0001.09,0000.08,0000.50,0000.43,0000.44,0000.61,0000.52,16.3,22.7,00.2,00.2,0675.2,30.7
2021-05-17T08:42:00Z,00000200,01000000,0002.43,0001.75,0001.26,0000.20,0000.21,0000.30,0000.73,0000.47,0000.72,16.3,22.7,00.1,00.1,0675.2,30.7
2021-05-17T08:43:00Z,00000200,01000000,0002.71,0001.63,0001.05,0000.34,0000.64,0000.17,0000.85,0000.82,-000.05,16.3,22.7,00.1,00.1,0675.2,30.7
2021-05-17T08:44:00Z,00000200,01000000,0002.17,0001.62,0001.15,0000.22,0000.49,0000.37,0000.85,0000.49,0000.88,16.3,22.7,00.1,00.1,0675.2,30.7
2021-05-17T08:45:00Z,00000200,01000000,0002.48,0001.54,0000.86,0000.28,0000.24,0000.12,0000.77,0001.13,0000.46,16.3,22.7,00.0,00.0,0675.2,30.7
2021-05-17T08:46:00Z,00000200,01000000,0003.07,0001.56,0001.32,0000.36,0000.48,0000.13,0000.99,0000.41,0000.28,16.3,22.7,00.0,00.0,0675.2,30.7
2021-05-17T08:47:00Z,00000200,01000000,0002.02,0001.65,0001.15,0000.43,0000.30,0000.49,0000.26,0000.24,0000.35,16.3,22.7,00.0,00.0,0675.2,30.8
2021-05-17T08:48:00Z,00000200,01000000,0002.88,0001.86,0001.37,0000.58,0000.33,0000.13,0000.75,0000.99,0000.26,16.3,22.7,00.0,00.0,0675.2,30.8
2021-05-17T08:49:00Z,00000200,01000000,0003.60,0001.96,0001.36,0000.80,0000.57,0000.36,0001.23,0000.38,0000.67,16.3,22.7,00.0,00.0,0675.2,30.8
2021-05-17T08:50:00Z,00000200,01000000,0002.33,0002.16,0001.33,0000.64,0000.42,0000.55,0000.59,0001.05,0000.34,16.4,22.8,,00.0,0675.2,30.8
2021-05-17T08:51:00Z,00000200,01000000,0002.89,0002.28,0001.50,0000.75,0000.30,0000.49,0000.89,0000.67,0000.17,16.4,22.8,,00.0,0675.2,30.8
2021-05-17T08:52:00Z,00000200,01000000,0003.39,0002.11,0001.61,0000.86,0000.64,0000.45,0001.18,0000.91,0000.86,16.4,22.8,,00.0,0675.2,30.8
2021-05-17T08:53:00Z,00000200,01000000,0002.89,0002.32,0001.49,0001.07,0000.51,0000.63,0000.97,0000.67,0000.40,16.5,22.8,,00.0,0675.2,30.8
2021-05-17T08:54:00Z,00000200,01000000,0002.95,0002.63,0001.66,0000.29,0000.40,0000.33,0000.69,0000.51,0000.25,16.5,22.8,,00.0,0675.2,30.8
2021-05-17T08:55:00Z,00000200,01000000,0003.73,0002.45,0001.61,0000.73,0000.43,0000.18,0000.78,0000.61,0000.39,16.5,22.8,,00.0,0675.2,30.8
2021-05-17T08:56:00Z,00000200,01000000,0003.91,0002.58,0001.21,0000.57,0000.25,0000.29,0000.59,0000.23,0000.28,16.5,22.8,,00.0,0675.2,30.8
2021-05-17T08:57:00Z,00000200,41000000,,,,,,,0002.19,0002.30,0002.02,16.5,22.9,,00.0,0675.1,30.8
2021-05-17T08:58:00Z,00000200,61000000,,,,,,,-000.88,-000.90,-001.00,16.2,23.0,,00.0,0674.2,30.8
2021-05-17T08:59:00Z,00000200,21000000,,,,,,,-000.85,-000.70,-000.69,16.2,23.1,,00.0,0674.2,30.8
